Regional Weather Roundup
Issued by NWS

Home | Current Version | Previous Version | Graphics & Text | Print | Product List | Glossary On
Versions: 1 2 3 4 5 6 7 8 9 10 11 12 13 14 15 16 17 18 19 20 21 22 23 24 25 26 27 28 29 30 31 32 33 34 35 36 37 38 39 40 41 42 43 44 45 46 47 48 49 50
000
ASUS43 KDMX 041404
RWRIA

WEATHER ROUNDUP FOR IOWA
NATIONAL WEATHER SERVICE DES MOINES IA
  ISSUED BY NWS QUAD CITIES IA IL
800 AM CST WED MAR 04 2015

NOTE: "FAIR" INDICATES FEW OR NO CLOUDS BELOW 12,000 FEET WITH NO
SIGNIFICANT WEATHER AND/OR OBSTRUCTIONS TO VISIBILITY.

* - THESE STATIONS ARE NOT NWS STATIONS...THUS NOT UNDER NWS
QUALITY CONTROL.  THEY ALSO DO NOT REPORT WEATHER SUCH
AS PRECIPITATION OR FOG.

IAZ001>003-012>014-020>022-031>034-043>046-041500-
   NORTHWEST IOWA

CITY           SKY/WX    TMP DP  RH WIND       PRES   REMARKS
CARROLL *      SUNNY     12   1  62 NW7       30.24R WCI   2
CHEROKEE *     SUNNY      6   0  75 CALM      30.23R
DENNISON *     MOSUNNY   10   5  79 CALM      30.22S
LE MARS *      SUNNY      9   5  85 S3        30.23R
ORANGE CITY *  SUNNY      5   0  78 CALM      30.19R
SHELDON *      SUNNY      5  -2  72 CALM      30.18R
SIOUX CITY     SUNNY     14   6  70 W7        30.25R WCI   4
SPENCER        SUNNY      6  -3  66 W8        30.20R WCI  -7
STORM LAKE *   SUNNY      7   0  72 W5        30.21R WCI  -2
$$

IAZ055>058-069>071-079>083-090>094-041500-
   SOUTHWEST IOWA

CITY           SKY/WX    TMP DP  RH WIND       PRES   REMARKS
ATLANTIC *     MOSUNNY   14   5  67 VRB6      30.25R WCI   5
AUDUBON *      SUNNY     12   5  73 NW3       30.24R
CLARINDA *     SUNNY     10   7  85 CALM      30.30R
COUNCIL BLFS * MOSUNNY   16  10  79 CALM      30.25R
CRESTON *      SUNNY     12   3  67 N10       30.24R WCI  -1
HARLAN *       MOSUNNY   12   9  85 NW5       30.29R WCI   4
LAMONI         MOSUNNY   15   2  56 N14       30.24R WCI   0
RED OAK *      MOSUNNY   16   7  67 NW7       30.28R WCI   6
SHENANDOAH *   SUNNY     12  10  92 CALM      30.30R
$$

IAZ047>049-059>061-072>074-084-041500-
   CENTRAL IOWA

CITY           SKY/WX    TMP DP  RH WIND       PRES   REMARKS
AMES           SUNNY     10  -1  61 NW8       30.25R WCI  -2
ANKENY *       SUNNY     12   0  57 W10       30.26R WCI  -1
BOONE *        SUNNY     10  -2  56 NW12      30.22R WCI  -4
CHARITON *     PTSUNNY   14   1  57 NW10G16   30.24R WCI   1
DES MOINES     MOSUNNY   13  -2  51 N12       30.25R WCI  -1
GRINNELL *     PTSUNNY    8  -1  67 NW18      30.21R WCI -11
KNOXVILLE *    PTSUNNY   12  -2  52 NW9       30.23R WCI   0
MARSHALLTOWN   SUNNY      7  -2  66 NW13      30.22R WCI  -9
NEWTON *       PTSUNNY    9  -2  61 NW12      30.23R WCI  -6
PELLA *        MOSUNNY   12   3  67 NW10      30.26R WCI  -2
PERRY *          N/A     11   4  71 NW6       30.25R WCI   2
$$

IAZ004>006-015-016-023>025-035-036-041500-
   NORTH CENTRAL IOWA

CITY           SKY/WX    TMP DP  RH WIND       PRES   REMARKS
ALGONA *       SUNNY      7   3  85 NW9       30.21R WCI  -7
CLARION *      SUNNY      7  -2  66 NW8       30.21S WCI  -6
ESTHERVILLE    SUNNY      2  -5  72 W6        30.19R WCI  -9
FORT DODGE *   SUNNY      9  -2  61 CALM      30.23R
MASON CITY     SUNNY     -1  -8  72 W9        30.21R WCI -16
FOREST CITY *  FAIR       3  -6  66 W7        30.20R WCI  -9
WEBSTER CITY * SUNNY      7  -4  61 NW9       30.21R WCI  -7
IOWA FALLS *   FAIR       5  -3  68 NW9       30.22R WCI  -9
$$

IAZ007>011-017>019-026>030-037>042-050>054-066-041500-
   NORTHEAST IOWA

CITY           SKY/WX    TMP DP  RH WIND       PRES   REMARKS
CEDAR RAPIDS   MOSUNNY    7  -1  70 NW16      30.18R WCI -11
CHARLES CITY * SUNNY      5  -4  66 NW13      30.19R WCI -12
CLINTON *      CLOUDY    10   0  61 NW17      30.17R WCI  -7
DECORAH *      MOSUNNY    3  -6  66 NW10G16   30.15R WCI -12
DUBUQUE        PTSUNNY    7   0  73 NW14      30.12R WCI -10
MONTICELLO *   PTSUNNY    7  -2  66 NW16      30.17R WCI -11
OELWEIN *      MOSUNNY    5  -6  61 NW18      30.18R WCI -15
WATERLOO       MOSUNNY    6  -4  63 NW12      30.21R WCI  -9
$$

IAZ064-065-067-068-078-041500-
   EAST CENTRAL IOWA

CITY           SKY/WX    TMP DP  RH WIND       PRES   REMARKS
DAVENPORT      MOSUNNY   11   0  61 NW16      30.16R WCI  -6
IOWA CITY      MOSUNNY   11   0  61 NW18      30.22R WCI  -7
MT. PLEASANT * CLOUDY    13   1  57 NW12G20   30.22R WCI  -1
MUSCATINE *    CLOUDY    14   3  62 NW13      30.22R WCI   0
QUAD CITIES    CLOUDY    13   1  59 NW15      30.17R WCI  -3
$$

IAZ062-063-075>077-085>089-095>099-041500-
   SOUTHEAST IOWA

CITY           SKY/WX    TMP DP  RH WIND       PRES   REMARKS
BURLINGTON     CLOUDY    13   3  64 NW15G21   30.20R WCI  -3
FAIRFIELD *    PTSUNNY   14   1  57 NW14      30.23R WCI  -1
FORT MADISON * CLOUDY    14   3  62 NW12G17   30.22R WCI   0
KEOKUK *       CLOUDY    16   3  57 NW13G20   30.22R WCI   2
OSKALOOSA *    CLOUDY    12   0  57 NW18      30.23R WCI  -6
CENTERVILLE *  PTSUNNY   16   5  62 NW16      30.24R WCI   0
OTTUMWA        CLOUDY    13   0  56 NW18G26   30.23R WCI  -4
WASHINGTON *   PTSUNNY   12   3  67 NW18G24   30.21R WCI  -5
$$

ABBREVIATIONS USED IN REMARKS
   TC - TEMPERATURES IN CELSIUS
  WCI - WIND CHILL INDEX
   HX - HEAT INDEX
  VSB - VISIBILITY
$$


USA.gov is the U.S. government's official web portal to all federal, state and local government web resources and services.